| time (UTC) | temp F | wind direction | speed knots | gust knots | rain 1hr in | rain 24hr in | rain mn in | humidity % | barometer mb |
| 20260507154547 | 46 | 258 | 7.8 | 12.2 | 0.11 | 0.31 | 0.31 | 96 | 1004.9 |
| 20260507153045 | 46 | 267 | 3.5 | 7.8 | 0.09 | 0.30 | 0.30 | 96 | 1004.4 |
| 20260507151544 | 46 | 245 | 4.3 | 11.3 | 0.01 | 0.21 | 0.21 | 96 | 1004.7 |
| 20260507150044 | 46 | 223 | 7.0 | 13.0 | 0.00 | 0.20 | 0.20 | 96 | 1004.6 |
| 20260507144543 | 46 | 257 | 7.8 | 15.6 | 0.00 | 0.20 | 0.20 | 96 | 1004.6 |
| 20260507143040 | 47 | 241 | 7.0 | 13.0 | 0.00 | 0.20 | 0.20 | 96 | 1005.1 |
| 20260507141538 | 46 | 257 | 6.1 | 12.2 | 0.01 | 0.20 | 0.20 | 96 | 1005.2 |
| 20260507140138 | 46 | 224 | 6.1 | 13.0 | 0.01 | 0.20 | 0.20 | 96 | 1005.2 |
| 20260507134535 | 46 | 252 | 6.1 | 12.2 | 0.01 | 0.20 | 0.20 | 95 | 1005.8 |
| 20260507133034 | 46 | 214 | 6.1 | 13.9 | 0.02 | 0.20 | 0.20 | 95 | 1005.9 |
| 20260507131603 | 46 | 257 | 7.0 | 11.3 | 0.02 | 0.20 | 0.20 | 95 | 1006.1 |
| 20260507130030 | 47 | 226 | 6.1 | 13.9 | 0.02 | 0.20 | 0.20 | 95 | 1006.2 |
| 20260507124531 | 47 | 221 | 7.0 | 13.9 | 0.04 | 0.20 | 0.20 | 95 | 1006.7 |
| 20260507123035 | 47 | 242 | 6.1 | 14.8 | 0.03 | 0.18 | 0.18 | 95 | 1006.9 |
| 20260507121526 | 47 | 233 | 7.0 | 13.9 | 0.03 | 0.17 | 0.17 | 95 | 1007.0 |
| 20260507120031 | 46 | 243 | 7.0 | 13.0 | 0.06 | 0.17 | 0.17 | 95 | 1006.8 |
| 20260507114525 | 46 | 221 | 6.1 | 10.4 | 0.06 | 0.16 | 0.16 | 95 | 1007.0 |
| 20260507113054 | 46 | 254 | 6.1 | 13.0 | 0.05 | 0.15 | 0.15 | 95 | 1007.3 |
| 20260507111525 | 45 | 222 | 4.3 | 10.4 | 0.05 | 0.14 | 0.14 | 95 | 1007.2 |
| 20260507110020 | 46 | 271 | 5.2 | 11.3 | 0.02 | 0.11 | 0.11 | 95 | 1007.6 |
| 20260507104520 | 46 | 239 | 5.2 | 11.3 | 0.02 | 0.10 | 0.10 | 95 | 1007.5 |
| 20260507103018 | 46 | 257 | 5.2 | 11.3 | 0.03 | 0.10 | 0.10 | 95 | 1007.5 |
| 20260507101523 | 46 | 258 | 6.1 | 14.8 | 0.04 | 0.09 | 0.09 | 94 | 1007.8 |
| 20260507100029 | 46 | 248 | 7.0 | 15.6 | 0.06 | 0.09 | 0.09 | 95 | 1008.2 |
| 20260507094514 | 45 | 285 | 7.8 | 13.9 | 0.07 | 0.09 | 0.09 | 94 | 1008.2 |
| 20260507093014 | 45 | 267 | 6.1 | 13.9 | 0.06 | 0.07 | 0.07 | 94 | 1008.3 |
| 20260507091510 | 45 | 250 | 2.6 | 9.6 | 0.03 | 0.05 | 0.05 | 94 | 1008.1 |
| 20260507090008 | 44 | 259 | 4.3 | 9.6 | 0.01 | 0.02 | 0.02 | 94 | 1008.2 |
| 20260507084509 | 44 | 263 | 3.5 | 10.4 | 0.02 | 0.02 | 0.02 | 93 | 1008.4 |
| 20260507083010 | 44 | 228 | 2.6 | 8.7 | 0.02 | 0.02 | 0.02 | 93 | 1008.5 |
| 20260507081600 | 44 | 185 | 4.3 | 12.2 | 0.02 | 0.02 | 0.02 | 93 | 1009.0 |
| 20260507080057 | 44 | 212 | 4.3 | 9.6 | 0.02 | 0.02 | 0.02 | 93 | 1009.2 |
| 20260507074557 | 44 | 235 | 2.6 | 7.0 | 0.00 | 0.00 | 0.00 | 92 | 1009.3 |
| 20260507073058 | 45 | 278 | 2.6 | 7.0 | 0.00 | 0.00 | 0.00 | 91 | 1009.7 |
| 20260507071552 | 45 | 260 | 4.3 | 8.7 | 0.00 | 0.00 | 0.00 | 91 | 1009.9 |
| 20260507070105 | 45 | 167 | 3.5 | 8.7 | 0.00 | 0.00 | 0.00 | 91 | 1009.9 |
| 20260507064553 | 46 | 232 | 5.2 | 9.6 | 0.00 | 0.00 | 0.00 | 91 | 1010.0 |
| 20260507063054 | 46 | 272 | 3.5 | 10.4 | 0.00 | 0.00 | 0.00 | 91 | 1010.1 |
| 20260507061547 | 46 | 243 | 6.1 | 10.4 | 0.00 | 0.00 | 0.00 | 92 | 1010.8 |
| 20260507060047 | 45 | 265 | 5.2 | 11.3 | 0.00 | 0.00 | 0.00 | 92 | 1010.7 |
| 20260507054544 | 45 | 232 | 4.3 | 9.6 | 0.00 | 0.00 | 0.00 | 92 | 1010.9 |
| 20260507053039 | 45 | 250 | 3.5 | 8.7 | 0.00 | 0.00 | 0.00 | 92 | 1011.5 |
| 20260507051535 | 45 | 219 | 4.3 | 9.6 | 0.00 | 0.00 | 0.00 | 91 | 1012.0 |
| 20260507050057 | 45 | 265 | 5.2 | 11.3 | 0.00 | 0.00 | 0.00 | 91 | 1012.5 |
| 20260507044536 | 46 | 205 | 4.3 | 11.3 | 0.00 | 0.00 | 0.00 | 91 | 1012.7 |
| 20260507043027 | 46 | 262 | 6.1 | 12.2 | 0.00 | 0.00 | 0.00 | 91 | 1013.0 |
| 20260507041526 | 45 | 285 | 5.2 | 9.6 | 0.00 | 0.00 | 0.00 | 92 | 1013.1 |
| 20260507040023 | 46 | 244 | 3.5 | 13.9 | 0.00 | 0.00 | 0.00 | 90 | 1013.4 |
| 20260507034522 | 45 | 271 | 3.5 | 7.8 | 0.00 | 0.00 | 0.00 | 91 | 1013.5 |
| 20260507033021 | 46 | 227 | 3.5 | 7.8 | 0.00 | 0.00 | 0.00 | 90 | 1013.6 |
| 20260507031511 | 47 | 225 | 3.5 | 8.7 | 0.00 | 0.00 | 0.00 | 90 | 1014.1 |
| 20260507030009 | 48 | 123 | 5.2 | 10.4 | 0.00 | 0.00 | 0.00 | 89 | 1014.2 |
| 20260507024506 | 48 | 219 | 6.1 | 11.3 | 0.00 | 0.00 | 0.00 | 88 | 1014.6 |
| 20260507023003 | 48 | 219 | 4.3 | 12.2 | 0.00 | 0.00 | 0.00 | 89 | 1015.1 |
| 20260507021613 | 47 | 242 | 4.3 | 12.2 | 0.00 | 0.00 | 0.00 | 90 | 1015.4 |
| 20260507020058 | 47 | 249 | 3.5 | 7.8 | 0.00 | 0.00 | 0.00 | 90 | 1015.6 |
| 20260507014559 | 47 | 252 | 3.5 | 9.6 | 0.00 | 0.00 | 0.00 | 91 | 1015.8 |
| 20260507013054 | 46 | 226 | 4.3 | 7.8 | 0.00 | 0.00 | 0.00 | 91 | 1016.0 |
| 20260507011557 | 46 | 242 | 5.2 | 10.4 | 0.00 | 0.00 | 0.00 | 91 | 1016.1 |
| 20260507010052 | 45 | 223 | 3.5 | 7.8 | 0.00 | 0.00 | 0.00 | 91 | 1016.3 |
| 20260507004551 | 46 | 169 | 2.6 | 7.8 | 0.00 | 0.00 | 0.00 | 90 | 1016.5 |
| 20260507003049 | 47 | 233 | 2.6 | 8.7 | 0.00 | 0.00 | 0.00 | 88 | 1016.5 |
| 20260507001548 | 48 | 235 | 6.1 | 11.3 | 0.00 | 0.00 | 0.00 | 89 | 1016.6 |
| 20260507000048 | 47 | 209 | 4.3 | 8.7 | 0.00 | 0.00 | 0.00 | 89 | 1016.6 |
| 20260506234604 | 48 | 224 | 4.3 | 9.6 | 0.00 | 0.00 | 0.00 | 88 | 1016.4 |
| 20260506233048 | 48 | 248 | 5.2 | 8.7 | 0.00 | 0.00 | 0.00 | 88 | 1016.3 |
| 20260506231547 | 48 | 243 | 4.3 | 9.6 | 0.00 | 0.00 | 0.00 | 88 | 1016.4 |
| 20260506230046 | 48 | 273 | 7.0 | 11.3 | 0.00 | 0.00 | 0.00 | 87 | 1016.5 |
| 20260506224548 | 49 | 219 | 6.1 | 9.6 | 0.00 | 0.00 | 0.00 | 86 | 1016.6 |
| 20260506223050 | 48 | 250 | 7.0 | 13.0 | 0.00 | 0.00 | 0.00 | 86 | 1016.7 |
| 20260506221544 | 48 | 230 | 7.0 | 11.3 | 0.00 | 0.00 | 0.00 | 86 | 1016.8 |
| 20260506220044 | 48 | 283 | 6.1 | 12.2 | 0.00 | 0.00 | 0.00 | 86 | 1016.6 |
| 20260506214544 | 47 | 207 | 5.2 | 11.3 | 0.00 | 0.00 | 0.00 | 86 | 1016.5 |
| 20260506213043 | 48 | 249 | 7.0 | 14.8 | 0.00 | 0.00 | 0.00 | 86 | 1016.6 |
| 20260506211542 | 48 | 233 | 6.1 | 13.9 | 0.00 | 0.00 | 0.00 | 85 | 1016.6 |
| 20260506210042 | 50 | 247 | 7.0 | 15.6 | 0.00 | 0.00 | 0.00 | 83 | 1016.2 |
| 20260506204551 | 50 | 203 | 8.7 | 15.6 | 0.00 | 0.00 | 0.00 | 84 | 1016.5 |
| 20260506203040 | 50 | 249 | 7.8 | 13.0 | 0.00 | 0.00 | 0.00 | 83 | 1016.8 |
| 20260506201540 | 52 | 186 | 7.8 | 15.6 | 0.00 | 0.00 | 0.00 | 82 | 1016.8 |
| 20260506200044 | 53 | 235 | 11.3 | 16.5 | 0.00 | 0.00 | 0.00 | 81 | 1016.9 |
| 20260506194547 | 53 | 270 | 9.6 | 19.1 | 0.00 | 0.00 | 0.00 | 81 | 1017.1 |
| 20260506193038 | 53 | 240 | 9.6 | 18.2 | 0.00 | 0.00 | 0.00 | 82 | 1017.1 |
| 20260506191537 | 52 | 224 | 12.2 | 18.2 | 0.00 | 0.00 | 0.00 | 82 | 1017.4 |
| 20260506190038 | 52 | 263 | 7.8 | 15.6 | 0.00 | 0.00 | 0.00 | 83 | 1017.4 |
| 20260506184536 | 52 | 217 | 8.7 | 19.1 | 0.00 | 0.00 | 0.00 | 83 | 1017.5 |
| 20260506183040 | 52 | 264 | 11.3 | 17.4 | 0.00 | 0.00 | 0.00 | 83 | 1017.8 |
| 20260506181536 | 53 | 219 | 8.7 | 17.4 | 0.00 | 0.00 | 0.00 | 82 | 1018.0 |
| 20260506180034 | 52 | 228 | 13.9 | 20.0 | 0.00 | 0.00 | 0.00 | 82 | 1018.1 |
| 20260506174533 | 52 | 246 | 11.3 | 20.0 | 0.00 | 0.00 | 0.00 | 83 | 1018.2 |
| 20260506173032 | 53 | 230 | 12.2 | 17.4 | 0.00 | 0.00 | 0.00 | 83 | 1018.0 |
| 20260506171518 | 52 | 236 | 12.2 | 19.1 | 0.00 | 0.00 | 0.00 | 83 | 1018.1 |
| 20260506170009 | 53 | 223 | 12.2 | 20.0 | 0.00 | 0.00 | 0.00 | 84 | 1017.9 |
| 20260506164508 | 52 | 238 | 12.2 | 21.7 | 0.00 | 0.00 | 0.00 | 85 | 1018.1 |
| 20260506163007 | 52 | 237 | 11.3 | 20.0 | 0.00 | 0.00 | 0.00 | 84 | 1018.0 |
| 20260506161506 | 52 | 237 | 13.9 | 22.6 | 0.00 | 0.00 | 0.00 | 85 | 1018.2 |